Lapse_Rate
5.1 6.5 6.5 6.5 6.5 6.5 6.5 6.5 6.5 6.5 6.5 6.5 6.5 6.5 6.5 5.9 6.1 6.3 6.2 7.1 7.0 6.1 6.3 5.3 3.5 1.6 1.3 1.1 1.7 4.3 4.5 4.6 4.6 4.4 4.0 4.6 4.1 3.7 3.3 3.8 5.1 5.4 5.6 6.0
6.5 6.5 6.5 6.5 6.5 6.5 6.5 6.5 6.5 6.5 6.5 6.5 6.5 6.5 6.5 6.2 6.3 6.1 5.9 7.0 7.4 4.8 4.1 4.0 3.8 2.4 1.8 1.4 0.3 2.1 4.0 4.8 4.7 4.4 4.1 4.3 4.0 3.6 3.1 3.3 4.2 5.5 5.8 6.1
6.5 6.5 6.4 6.5 6.5 6.5 6.5 6.5 6.5 6.5 6.5 6.5 6.5 6.5 6.5 6.5 6.1 6.4 6.1 6.3 7.0 6.4 4.3 3.5 3.4 2.7 1.6 1.4 0.2 1.1 1.5 1.8 2.5 4.3 4.3 4.5 4.4 4.1 4.2 3.7 3.6 3.8 5.4 5.8
6.5 6.4 6.5 6.5 6.5 6.5 6.5 6.5 6.5 6.5 6.5 6.5 6.5 6.5 6.5 6.5 6.5 6.2 5.2 5.4 6.0 6.3 3.7 4.1 2.3 1.2 0.9 0.6 0.6 0.3 0.6 0.6 1.3 1.5 4.7 4.8 4.6 4.6 4.0 4.0 3.6 3.4 4.1 5.2
6.5 6.5 6.5 6.5 6.5 6.5 6.5 6.5 6.5 6.5 6.5 6.5 6.5 6.5 6.5 6.5 6.5 6.5 5.5 5.3 4.9 5.8 6.8 6.0 4.9 1.6 0.6 -0.6 0.7 0.7 0.6 0.7 0.2 0.2 1.0 4.1 4.3 4.2 3.8 4.0 3.9 3.5 3.4 3.6
6.5 6.1 6.5 6.5 6.5 6.5 6.5 6.5 6.5 6.5 6.5 6.5 6.5 6.5 6.5 6.5 6.5 6.5 6.1 5.3 5.4 5.1 5.8 5.5 5.7 4.7 0.9 1.5 0.3 0.9 0.6 0.0 -0.7 -1.1 -0.1 0.5 0.3 1.9 3.1 4.1 4.4 4.3 4.1 4.1
6.5 6.5 6.5 6.3 6.5 6.5 6.5 6.5 6.5 6.5 6.5 6.5 6.5 6.5 6.5 6.5 6.5 6.4 6.3 5.6 5.0 4.2 4.3 4.9 4.5 3.6 3.8 2.3 2.3 2.5 1.2 0.4 0.8 0.7 -0.2 -0.5 -0.0 0.5 0.7 1.5 2.3 2.6 3.4 3.7
6.5 6.5 6.5 6.5 6.5 6.5 6.5 6.5 6.5 6.5 6.5 6.5 6.5 6.5 6.5 6.5 5.8 5.4 5.6 5.5 5.0 4.3 4.2 4.5 4.5 3.6 2.3 2.8 2.9 2.1 1.8 2.0 1.8 0.9 0.8 0.1 0.3 0.3 0.3 0.7 0.8 0.4 -0.0 0.1
6.5 6.5 6.5 6.5 6.5 6.5 6.5 6.5 6.5 6.5 6.5 6.5 6.5 6.5 6.5 6.5 6.5 6.2 5.8 5.2 4.8 4.4 3.9 3.6 4.0 3.6 3.0 1.7 1.3 1.2 1.3 1.3 1.1 0.8 1.2 0.6 0.5 0.7 1.7 1.4 1.4 1.0 1.0 1.3
6.5 6.5 6.5 6.5 6.4 6.4 6.5 6.5 6.5 6.5 6.5 6.5 6.5 6.5 6.5 6.5 6.5 6.5 6.4 5.5 5.0 4.5 3.8 3.1 2.4 2.6 2.8 2.7 1.9 0.9 0.8 0.8 0.9 0.9 0.8 0.9 0.4 0.6 0.4 0.5 0.1 0.4 0.9 1.2
6.5 6.5 6.5 6.5 6.5 6.5 6.5 6.5 6.5 6.5 6.5 6.5 6.5 6.5 6.5 6.5 6.5 6.5 6.2 5.8 4.8 3.9 3.2 2.7 2.2 1.8 1.7 1.8 2.1 2.4 2.0 1.4 0.4 0.1 0.2 -0.5 -0.2 0.3 1.2 0.6 0.3 0.1 0.4 0.4
6.5 6.5 6.5 6.5 6.5 6.5 6.5 6.5 6.5 6.5 6.5 6.5 6.5 6.5 6.5 6.5 6.3 6.0 5.7 5.6 5.0 4.3 3.7 2.8 2.0 1.3 0.3 0.1 0.3 0.0 0.3 0.7 1.1 1.4 1.5 1.0 0.8 0.6 0.3 -0.0 0.1 0.6 0.4 0.8
6.5 6.5 6.5 6.5 6.5 6.5 6.5 6.5 6.5 6.5 6.5 6.5 6.5 6.5 6.5 6.3 6.2 5.5 5.3 5.0 5.2 4.7 4.0 3.2 2.3 1.4 0.9 0.7 0.5 0.1 0.1 -0.2 0.5 0.8 1.0 1.2 1.1 0.6 0.3 0.7 0.9 1.2 1.1 0.8
5.8 6.5 6.5 6.5 6.5 6.5 6.5 6.5 6.5 6.5 6.5 6.5 6.5 6.5 6.5 6.5 6.5 6.5 5.8 5.0 4.9 4.8 4.2 3.2 2.4 2.0 1.9 2.0 1.8 1.4 1.3 1.3 1.3 1.1 1.2 1.1 0.9 1.1 1.5 1.5 1.1 1.0 1.0 1.0
6.4 6.5 6.5 6.5 6.5 6.5 6.5 6.5 6.5 6.5 6.5 6.5 6.5 6.5 6.5 6.5 6.5 6.6 5.8 5.3 5.0 4.5 4.1 4.1 3.4 2.6 2.2 1.9 2.0 2.3 2.6 2.5 2.4 2.5 3.0 2.9 2.8 2.5 1.8 1.3 1.2 1.2 1.1 1.0
6.4 6.5 6.5 6.5 6.5 6.5 6.5 6.5 6.5 6.5 6.5 6.5 6.5 6.5 6.6 6.2 5.9 6.7 6.0 6.1 5.8 5.4 5.0 4.5 4.2 4.0 3.3 2.7 3.1 3.2 2.6 2.4 2.9 3.1 3.6 3.5 3.1 3.0 2.9 2.7 2.5 2.2 1.8 1.4
6.5 6.5 6.5 6.5 6.5 6.5 6.5 6.5 6.5 6.5 6.5 6.5 6.5 6.5 6.3 6.5 6.6 6.7 6.6 5.7 5.2 5.1 5.0 4.7 4.4 3.9 3.7 3.6 3.7 3.1 2.7 2.8 2.5 2.2 1.9 1.7 1.6 1.6 1.9 2.5 2.9 2.9 2.5 2.2
6.5 6.5 6.5 6.5 6.5 6.5 6.5 6.5 6.5 6.5 6.5 6.5 6.5 6.5 6.3 6.3 5.8 5.6 5.2 4.8 5.0 5.3 5.2 4.8 4.2 4.2 4.0 3.4 3.0 2.4 2.6 2.5 2.5 2.6 2.5 2.5 2.3 2.0 1.6 1.3 1.2 0.8 1.1 1.5
6.1 6.5 6.5 6.5 6.5 6.5 6.5 6.5 6.5 6.5 6.5 6.5 6.5 6.4 6.2 5.5 4.9 5.8 5.1 4.7 4.4 4.7 4.6 4.6 4.3 4.2 3.3 2.7 2.2 2.2 2.3 2.1 2.0 2.1 1.9 2.2 2.1 2.1 2.0 2.0 1.5 1.6 1.1 1.0
6.5 6.5 6.5 6.5 6.5 6.5 6.5 6.5 6.0 6.3 6.5 6.1 5.8 6.2 6.2 5.7 6.5 6.5 4.9 5.0 4.9 5.0 4.7 4.7 4.6 3.9 3.0 3.2 3.0 3.0 2.8 2.5 2.3 2.7 2.5 3.0 3.3 3.1 2.4 2.2 2.2 2.8 2.6 3.1
6.5 6.5 6.5 6.5 6.5 6.5 6.5 6.0 5.6 6.5 6.5 5.6 5.0 5.1 5.8 6.4 5.1 4.2 5.1 5.1 5.2 5.2 5.6 4.4 3.9 3.7 3.6 3.6 3.5 3.4 3.4 3.2 3.4 3.6 3.4 3.5 3.5 3.2 2.9 2.9 3.0 3.1 3.0 2.8
6.5 6.5 6.5 6.5 6.5 6.5 5.6 6.4 6.5 6.0 5.4 4.6 4.1 4.3 4.7 3.6 4.6 5.0 5.7 5.9 5.9 5.4 5.3 5.0 4.3 3.8 4.0 4.0 3.3 3.4 3.2 4.1 3.3 3.2 3.4 3.3 3.1 3.5 4.9 4.0 3.8 4.1 3.2 2.8
6.5 6.5 6.5 6.5 6.5 6.2 4.9 5.3 5.2 4.6 4.8 5.2 4.5 5.1 5.3 5.8 6.5 7.0 6.6 5.6 5.2 5.2 4.9 4.9 4.0 3.7 4.1 3.9 3.8 3.5 3.9 3.3 2.7 2.6 2.6 2.6 3.3 4.0 4.5 4.3 4.5 4.2 3.8 3.7
6.5 5.8 6.5 6.5 6.4 6.5 5.1 4.3 4.9 5.2 4.3 5.0 4.8 4.9 5.3 5.7 6.8 6.4 5.8 5.6 5.1 5.2 5.0 4.3 3.5 2.8 2.6 3.0 3.8 3.3 2.9 3.4 3.0 2.9 2.7 3.0 3.3 3.7 4.0 4.5 5.1 4.8 4.4 4.4
5.7 6.4 6.5 6.5 6.5 6.5 6.1 5.8 5.4 5.1 4.7 4.5 5.0 6.1 6.5 6.8 6.4 6.0 5.8 5.5 5.0 5.0 4.8 4.2 3.6 3.5 3.3 2.6 2.3 2.7 4.2 3.4 3.3 3.3 3.3 3.4 3.9 3.5 3.6 4.4 4.5 5.2 5.6 6.6
5.5 6.5 6.5 6.5 6.3 6.1 6.4 6.0 5.3 5.1 5.4 5.3 5.4 5.9 6.7 6.6 6.1 5.7 5.2 4.9 4.7 4.3 4.1 3.8 3.8 3.9 3.3 2.8 2.7 3.1 3.2 3.9 3.4 3.3 4.0 3.7 4.3 3.8 4.4 4.5 3.8 5.1 7.2 8.5
Wind_Speed
4 6 2 3 2 3 2 2 4 4 4 5 2 3 3 7 6 12 14 16 16 16 15 16 19 20 21 22 20 12 5 3 4 2 2 3 3 5 4 4 5 11 14 13
5 1 1 1 1 2 3 3 4 3 3 3 5 3 2 5 4 7 9 12 15 17 20 20 20 20 20 19 21 17 11 6 5 3 3 3 3 3 3 7 6 5 10 10
3 0 1 3 1 1 2 3 2 3 1 2 6 3 3 3 4 7 8 8 11 15 17 19 20 19 18 20 19 18 18 17 14 6 6 5 6 3 4 5 4 4 3 6
2 1 1 1 1 0 4 3 2 3 0 3 3 4 4 4 3 7 9 11 11 14 17 15 18 19 18 18 20 19 18 18 15 16 9 10 9 8 7 6 5 6 8 5
2 2 2 1 2 3 6 2 4 2 2 3 1 2 3 2 1 4 7 9 10 11 13 14 13 15 16 17 16 17 16 20 19 19 18 8 10 7 6 5 8 8 8 13
2 1 1 2 3 2 5 1 4 3 2 2 3 4 3 3 3 1 3 6 8 10 11 13 14 13 15 14 15 15 18 19 21 20 18 17 19 13 10 7 5 4 4 5
6 2 2 1 3 2 7 5 3 3 2 4 2 0 3 3 4 3 4 5 6 7 9 11 13 13 13 16 15 13 17 19 17 17 18 19 17 15 13 11 9 10 8 6
3 6 2 2 1 2 1 2 3 3 2 4 1 5 2 3 6 7 6 5 5 6 6 8 10 10 12 13 13 14 16 15 16 17 17 15 14 9 9 10 8 7 7 8
3 5 3 3 1 4 1 0 3 2 2 2 2 4 2 5 5 5 6 5 5 5 6 7 8 8 9 11 13 14 14 14 16 15 12 13 13 14 9 10 8 6 7 8
2 5 2 4 0 1 2 3 2 2 3 4 3 4 4 8 10 7 6 6 5 5 5 6 7 8 9 9 9 12 12 13 12 13 12 10 11 10 9 9 10 10 9 12
2 2 4 2 2 2 1 1 1 1 2 3 3 4 4 7 13 12 7 6 6 5 5 5 5 6 6 6 8 8 9 11 12 12 11 12 11 10 6 7 8 8 10 12
1 3 4 8 2 2 2 2 2 2 3 3 2 6 3 3 9 10 8 7 6 6 5 5 5 6 7 8 9 10 10 10 9 7 8 9 8 8 9 11 11 13 9 12
2 1 4 8 4 1 3 4 4 3 3 11 5 5 3 3 6 6 11 8 6 6 6 5 5 6 6 7 8 9 10 10 10 8 8 8 9 9 9 8 8 10 9 9
1 3 7 7 7 2 5 6 5 6 5 6 16 13 4 6 8 8 8 8 6 5 5 4 5 5 5 5 5 6 7 7 7 7 8 10 11 10 9 8 9 9 11 9
3 5 5 9 8 6 14 18 12 12 17 13 16 15 13 15 17 14 10 9 8 5 4 4 3 3 4 5 5 5 5 6 6 6 5 6 7 8 10 11 10 9 10 9
1 4 1 5 10 9 11 19 14 16 18 16 17 21 5 3 10 11 13 12 9 6 5 4 2 2 3 3 4 5 5 5 4 4 4 5 5 5 6 7 9 10 11 10
2 2 4 6 4 7 12 10 4 3 5 4 8 5 4 5 13 14 12 9 8 7 5 4 3 1 2 2 3 3 3 3 4 5 5 6 5 5 4 5 5 5 7 9
4 4 2 5 5 3 4 3 3 5 4 3 1 2 2 6 7 8 6 7 7 6 5 4 2 1 1 1 1 2 3 3 3 3 3 4 6 7 7 8 8 6 6 6
8 5 2 3 3 9 7 2 4 4 5 6 7 5 6 7 5 4 4 4 6 5 4 3 2 2 2 4 5 5 5 5 5 5 5 7 7 8 8 9 9 8 9 10
3 3 4 3 4 6 3 4 3 2 5 7 7 8 9 6 4 4 6 5 5 5 3 2 1 1 5 5 5 5 5 6 6 6 5 6 6 6 8 8 8 7 7 10
3 2 13 12 6 8 4 5 4 3 4 3 5 7 8 4 1 5 7 5 4 3 2 3 3 2 3 4 4 5 5 5 5 7 7 7 6 8 7 6 6 7 8 9
8 7 5 4 5 10 6 4 7 3 2 5 4 3 5 7 6 6 5 5 4 3 3 3 2 3 4 4 4 5 5 5 6 7 8 7 6 7 8 9 9 8 8 9
4 7 5 10 6 2 2 3 2 3 3 3 5 5 7 8 6 5 4 4 3 2 2 3 3 4 4 5 4 5 7 7 6 7 8 7 8 7 9 8 9 8 7 7
4 3 3 1 1 2 4 2 2 3 6 8 8 7 6 6 5 4 3 2 1 2 3 1 4 5 5 5 5 6 7 7 7 9 8 7 7 9 5 6 7 7 7 7
3 6 5 6 2 2 4 4 7 8 8 9 7 6 6 5 4 3 2 0 1 3 3 3 4 5 6 6 6 6 8 7 8 8 8 8 7 7 8 7 7 7 8 10
5 6 6 7 4 2 2 8 9 9 7 6 7 6 5 4 3 3 2 2 2 3 3 4 4 5 7 6 7 8 6 6 7 8 7 6 7 6 6 7 8 16 19 20
Wind_Direction
13 64 10 290 228 259 266 249 252 260 135 102 121 137 296 314 353 8 13 359 360 3 345 355 2 2 358 5 4 350 69 111 134 136 133 117 172 166 133 97 146 151 149 154
23 96 217 225 98 279 250 223 267 301 144 104 180 241 236 317 359 10 11 4 359 357 2 2 6 8 7 4 5 359 3 63 66 57 78 105 101 84 81 88 54 73 128 152
146 249 78 166 271 353 235 193 251 234 95 53 141 280 196 226 22 13 23 2 18 9 2 359 4 6 6 13 1 2 16 28 23 35 85 89 80 45 84 69 52 38 86 145
227 57 64 3 317 110 316 221 216 274 47 234 178 276 226 193 342 29 358 10 1 12 6 9 1 7 1 9 7 7 18 28 24 20 53 64 71 69 53 33 52 8 16 64
297 17 360 337 275 172 239 183 239 232 206 347 202 98 249 90 32 11 4 7 2 360 12 6 13 12 7 7 9 7 16 36 29 31 34 38 63 66 61 49 44 30 14 25
247 263 193 271 302 213 323 13 39 50 88 338 234 159 253 178 144 124 40 17 9 7 12 15 15 20 19 20 12 10 26 32 33 35 31 38 48 41 39 32 42 25 35 42
338 339 303 1 343 29 18 40 345 347 4 235 262 304 268 149 127 128 93 44 26 8 13 20 16 14 19 21 14 16 29 35 33 38 39 38 37 41 37 27 29 27 13 9
48 332 4 351 214 270 354 113 137 283 288 295 290 240 266 149 126 122 114 95 53 33 13 18 25 21 15 18 17 27 30 31 32 38 36 45 42 40 38 28 29 29 18 7
17 278 303 211 171 137 263 144 216 211 197 262 256 268 170 137 156 153 142 104 76 47 20 17 17 23 20 18 14 18 25 30 34 38 38 35 40 41 25 29 28 25 18 15
212 298 248 294 43 265 207 148 351 356 299 275 256 269 249 206 201 184 166 148 119 82 45 24 16 20 24 20 10 15 22 30 28 33 37 36 39 34 26 18 20 19 15 15
147 135 287 324 180 207 5 308 158 242 195 266 300 262 203 210 192 184 173 156 139 112 83 52 23 12 13 28 33 34 30 24 23 23 22 29 22 24 15 24 22 18 10 11
310 159 277 243 268 237 241 228 149 154 284 249 295 267 341 247 170 159 155 149 140 130 107 70 43 24 16 14 16 20 21 27 25 27 30 22 11 14 15 12 10 2 7 5
180 293 320 334 5 318 225 207 169 134 4 246 253 261 46 88 134 155 152 151 148 137 119 96 54 33 23 15 11 10 11 9 8 11 20 20 23 17 9 2 358 360 357 356
107 205 196 226 236 211 261 238 208 198 207 272 239 262 211 204 191 170 158 149 143 134 117 95 63 42 28 23 21 14 6 2 0 5 12 7 2 360 357 355 359 356 354 348
163 237 206 260 274 266 270 268 259 229 246 244 262 258 269 202 200 183 157 148 147 144 125 108 88 42 17 8 9 7 2 354 351 355 11 357 346 344 345 346 348 347 348 342
8 274 315 269 255 272 278 274 262 255 257 251 260 264 240 180 135 154 160 161 160 157 148 142 112 58 11 354 343 337 335 338 342 345 341 328 328 327 329 329 331 337 337 338
233 225 348 279 344 302 278 267 213 244 225 212 224 260 146 159 165 159 154 157 156 158 161 166 166 248 290 260 244 297 313 321 338 331 333 330 326 318 301 301 297 306 318 319
206 155 188 281 345 258 248 169 211 243 241 212 31 68 87 115 89 99 116 136 145 153 159 162 169 228 263 235 320 329 341 338 326 311 307 312 327 329 330 332 332 317 310 294
216 176 231 251 226 287 278 183 164 186 289 177 152 141 111 104 67 40 109 127 155 158 148 147 165 214 313 355 351 351 345 343 340 337 334 335 329 325 327 325 322 319 319 318
108 203 194 169 240 253 225 174 149 149 268 163 147 153 155 154 167 208 161 130 122 116 116 134 132 40 19 347 341 339 333 333 327 321 314 310 304 315 316 306 308 308 301 304
138 173 217 228 250 277 174 151 142 130 265 115 143 152 157 181 83 118 119 111 117 117 102 94 54 25 322 321 328 312 313 305 293 312 305 313 311 313 295 293 299 298 306 307
180 171 199 203 227 272 136 100 183 168 83 122 95 97 114 115 106 106 113 120 118 83 34 11 359 321 307 312 314 299 300 297 305 302 305 304 300 302 312 307 304 304 304 303
241 202 190 195 221 60 8 26 7 104 120 120 111 105 117 120 126 135 131 118 92 66 337 321 317 311 307 311 303 301 304 308 304 305 299 293 296 297 300 297 306 304 303 297
249 146 232 336 195 171 165 78 48 77 105 101 102 106 120 133 136 129 141 135 89 329 310 305 322 312 302 300 306 285 298 307 301 298 295 292 298 301 303 298 294 291 292 293
194 136 194 251 165 111 198 179 134 108 103 103 108 114 115 118 119 125 122 59 331 313 323 325 307 299 298 303 295 290 302 298 293 293 293 294 295 294 292 287 284 289 285 282
188 187 197 250 125 101 92 137 126 123 118 119 120 110 87 95 108 94 59 11 318 313 315 306 294 298 295 290 289 293 286 287 289 292 295 294 299 293 286 293 293 290 295 300